TimeHST,TemperatureF,Dew PointF,Humidity,Sea Level PressureIn,VisibilityMPH,Wind Direction,Wind SpeedMPH,Gust SpeedMPH,PrecipitationIn,Events,Conditions,WindDirDegrees,DateUTC
12:55 AM,71.4,64.0,77,30.06,10.0,Variable,3.5,-,N/A,,Partly Cloudy,0,2013-06-13 10:55:00
1:55 AM,72.1,63.7,75,30.05,10.0,East,6.9,-,N/A,,Scattered Clouds,80,2013-06-13 11:55:00
2:55 AM,72.0,63.9,76,30.04,10.0,Variable,5.8,-,N/A,,Partly Cloudy,0,2013-06-13 12:55:00
3:55 AM,71.6,64.0,77,30.04,10.0,ENE,5.8,-,N/A,,Mostly Cloudy,60,2013-06-13 13:55:00
3:59 AM,71.6,64.4,78,30.05,10.0,NE,9.2,-,N/A,,Light Drizzle,50,2013-06-13 13:59:00
4:09 AM,71.6,64.4,78,30.05,10.0,ENE,9.2,-,N/A,,Partly Cloudy,70,2013-06-13 14:09:00
4:55 AM,70.0,64.9,84,30.06,10.0,North,3.5,-,0.00,,Scattered Clouds,360,2013-06-13 14:55:00
5:08 AM,69.8,64.4,83,30.06,10.0,NE,5.8,-,N/A,,Light Drizzle,50,2013-06-13 15:08:00
5:18 AM,69.8,64.4,83,30.07,10.0,ENE,10.4,-,N/A,,Partly Cloudy,60,2013-06-13 15:18:00
5:27 AM,69.8,64.4,83,30.07,10.0,NE,5.8,-,N/A,,Light Drizzle,50,2013-06-13 15:27:00
5:47 AM,69.8,64.4,83,30.07,10.0,NNE,3.5,-,N/A,,Partly Cloudy,30,2013-06-13 15:47:00
5:55 AM,69.6,64.9,85,30.07,10.0,NE,3.5,-,0.00,,Partly Cloudy,40,2013-06-13 15:55:00
6:45 AM,69.8,64.4,83,30.07,10.0,NNE,10.4,-,N/A,,Light Drizzle,30,2013-06-13 16:45:00
6:54 AM,69.8,66.2,88,30.07,10.0,NNE,6.9,-,N/A,,Clear,20,2013-06-13 16:54:00
6:55 AM,69.8,65.5,86,30.07,10.0,NNE,6.9,-,0.00,,Clear,30,2013-06-13 16:55:00
6:58 AM,69.8,66.2,88,30.08,10.0,NNE,5.8,-,N/A,Rain,Light Rain,20,2013-06-13 16:58:00
7:20 AM,69.8,66.2,88,30.08,10.0,North,4.6,-,N/A,,Clear,360,2013-06-13 17:20:00
7:55 AM,73.8,66.0,77,30.08,10.0,East,3.5,-,0.00,,Clear,90,2013-06-13 17:55:00
8:42 AM,73.4,64.4,73,30.09,10.0,NE,4.6,-,N/A,,Light Drizzle,40,2013-06-13 18:42:00
8:55 AM,73.6,64.9,74,30.09,10.0,ENE,5.8,-,0.00,,Light Drizzle,60,2013-06-13 18:55:00
9:35 AM,73.4,66.2,78,30.09,10.0,NNE,6.9,-,N/A,,Clear,30,2013-06-13 19:35:00
9:43 AM,73.4,66.2,78,30.10,10.0,ENE,9.2,-,N/A,,Light Drizzle,60,2013-06-13 19:43:00
9:55 AM,72.7,66.9,82,30.10,4.0,ENE,8.1,-,0.01,Rain,Rain,60,2013-06-13 19:55:00
10:02 AM,73.4,68.0,83,30.10,10.0,East,15.0,-,N/A,,Scattered Clouds,80,2013-06-13 20:02:00
10:16 AM,73.4,68.0,83,30.10,9.0,ENE,12.7,-,N/A,Rain,Light Rain,60,2013-06-13 20:16:00
10:38 AM,73.4,68.0,83,30.10,10.0,East,10.4,-,N/A,,Partly Cloudy,80,2013-06-13 20:38:00
10:44 AM,75.2,68.0,78,30.09,10.0,ENE,16.1,-,N/A,,Light Drizzle,70,2013-06-13 20:44:00
10:55 AM,74.7,66.4,75,30.09,10.0,ENE,13.8,-,0.00,,Light Drizzle,70,2013-06-13 20:55:00
11:23 AM,77.0,66.2,69,30.09,10.0,ENE,16.1,-,N/A,,Light Drizzle,70,2013-06-13 21:23:00
11:43 AM,77.0,66.2,69,30.09,10.0,ENE,18.4,-,N/A,,Mostly Cloudy,70,2013-06-13 21:43:00
11:54 AM,77.0,66.2,69,30.09,10.0,ENE,16.1,-,N/A,,Light Drizzle,70,2013-06-13 21:54:00
11:55 AM,77.4,66.6,69,30.09,10.0,ENE,16.1,-,0.01,,Light Drizzle,60,2013-06-13 21:55:00
12:00 PM,77.0,66.2,69,30.09,10.0,ENE,13.8,-,N/A,,Scattered Clouds,60,2013-06-13 22:00:00
12:45 PM,78.8,66.2,65,30.09,10.0,ENE,15.0,-,N/A,Rain,Light Rain,60,2013-06-13 22:45:00
12:55 PM,77.0,67.1,71,30.09,10.0,ENE,12.7,-,0.00,Rain,Light Rain,60,2013-06-13 22:55:00
12:56 PM,77.0,66.2,69,30.09,10.0,ENE,13.8,-,N/A,,Overcast,60,2013-06-13 22:56:00
1:36 PM,78.8,66.2,65,30.07,10.0,ENE,13.8,25.3,N/A,,Light Drizzle,70,2013-06-13 23:36:00
1:39 PM,78.8,66.2,65,30.07,10.0,ENE,15.0,25.3,N/A,,Light Drizzle,70,2013-06-13 23:39:00
1:46 PM,78.8,66.2,65,30.07,10.0,ENE,19.6,24.2,N/A,,Partly Cloudy,70,2013-06-13 23:46:00
1:55 PM,77.5,66.6,69,30.07,10.0,ENE,15.0,-,0.00,,Partly Cloudy,70,2013-06-13 23:55:00
2:04 PM,77.0,66.2,69,30.07,10.0,NE,8.1,-,N/A,,Partly Cloudy,50,2013-06-14 00:04:00
2:25 PM,77.0,66.2,69,30.06,10.0,ENE,16.1,23.0,N/A,,Light Drizzle,60,2013-06-14 00:25:00
2:34 PM,77.0,68.0,74,30.06,10.0,ENE,16.1,-,N/A,,Partly Cloudy,70,2013-06-14 00:34:00
2:36 PM,77.0,68.0,74,30.06,10.0,ENE,15.0,-,N/A,,Partly Cloudy,70,2013-06-14 00:36:00
2:37 PM,77.0,68.0,74,30.06,10.0,ENE,16.1,-,N/A,,Partly Cloudy,70,2013-06-14 00:37:00
2:52 PM,77.0,68.0,74,30.06,10.0,ENE,13.8,-,N/A,Rain,Light Rain,60,2013-06-14 00:52:00
2:55 PM,77.5,67.8,72,30.06,10.0,ENE,13.8,-,0.00,Rain,Light Rain,70,2013-06-14 00:55:00
3:00 PM,77.0,68.0,74,30.06,10.0,ENE,12.7,-,N/A,,Partly Cloudy,70,2013-06-14 01:00:00
3:01 PM,77.0,68.0,74,30.06,10.0,ENE,12.7,-,N/A,Rain,Light Rain,70,2013-06-14 01:01:00
3:12 PM,77.0,68.0,74,30.06,9.0,ENE,13.8,20.7,N/A,,Partly Cloudy,70,2013-06-14 01:12:00
3:27 PM,77.0,68.0,74,30.05,10.0,ENE,12.7,-,N/A,,Light Drizzle,60,2013-06-14 01:27:00
3:55 PM,76.3,67.1,73,30.06,10.0,ENE,13.8,-,0.00,Rain,Light Rain,60,2013-06-14 01:55:00
4:06 PM,75.2,66.2,73,30.05,10.0,ENE,11.5,-,N/A,,Scattered Clouds,70,2013-06-14 02:06:00
4:13 PM,75.2,66.2,73,30.05,10.0,East,11.5,-,N/A,,Light Drizzle,80,2013-06-14 02:13:00
4:22 PM,75.2,66.2,73,30.05,10.0,ENE,10.4,-,N/A,,Mostly Cloudy,60,2013-06-14 02:22:00
4:25 PM,75.2,66.2,73,30.05,10.0,ENE,10.4,-,N/A,,Light Drizzle,70,2013-06-14 02:25:00
4:36 PM,75.2,66.2,73,30.05,10.0,NE,9.2,-,N/A,,Mostly Cloudy,50,2013-06-14 02:36:00
4:37 PM,75.2,66.2,73,30.05,10.0,NE,9.2,-,N/A,,Light Drizzle,50,2013-06-14 02:37:00
4:55 PM,73.4,67.6,82,30.05,8.0,ENE,10.4,-,0.00,,Light Drizzle,60,2013-06-14 02:55:00
5:31 PM,73.4,66.2,78,30.06,10.0,ENE,4.6,-,N/A,,Light Drizzle,70,2013-06-14 03:31:00
5:34 PM,73.4,66.2,78,30.06,10.0,Variable,3.5,-,N/A,,Light Drizzle,0,2013-06-14 03:34:00
5:53 PM,71.6,66.2,83,30.06,9.0,East,4.6,-,N/A,,Light Drizzle,80,2013-06-14 03:53:00
5:55 PM,72.3,67.1,84,30.06,10.0,Variable,3.5,-,0.00,,Light Drizzle,0,2013-06-14 03:55:00
5:58 PM,71.6,68.0,88,30.06,10.0,NE,3.5,-,N/A,,Drizzle,50,2013-06-14 03:58:00
6:55 PM,71.2,67.1,87,30.06,10.0,Calm,Calm,-,0.02,,Light Drizzle,0,2013-06-14 04:55:00
7:55 PM,70.9,67.3,88,30.08,10.0,East,11.5,18.4,0.02,,Light Drizzle,90,2013-06-14 05:55:00
8:34 PM,69.8,68.0,94,30.08,9.0,ENE,8.1,-,N/A,Rain,Light Rain,60,2013-06-14 06:34:00
8:42 PM,69.8,68.0,94,30.09,8.0,East,8.1,-,N/A,Rain,Light Rain,90,2013-06-14 06:42:00
8:55 PM,70.5,67.3,89,30.09,8.0,ENE,10.4,-,0.04,Rain,Light Rain,70,2013-06-14 06:55:00
9:10 PM,71.6,68.0,88,30.09,10.0,East,12.7,23.0,N/A,,Scattered Clouds,80,2013-06-14 07:10:00
9:23 PM,71.6,68.0,88,30.09,10.0,ENE,9.2,-,N/A,,Light Drizzle,70,2013-06-14 07:23:00
9:42 PM,71.6,68.0,88,30.09,10.0,ENE,8.1,-,N/A,,Scattered Clouds,70,2013-06-14 07:42:00
9:44 PM,71.6,68.0,88,30.09,10.0,East,8.1,-,N/A,Rain,Light Rain,80,2013-06-14 07:44:00
9:50 PM,69.8,68.0,94,30.10,7.0,East,10.4,-,N/A,Rain,Light Rain,90,2013-06-14 07:50:00
9:55 PM,70.5,67.1,89,30.10,5.0,East,9.2,-,0.02,Rain,Rain,100,2013-06-14 07:55:00
10:04 PM,69.8,68.0,94,30.10,9.0,Calm,Calm,-,N/A,,Light Drizzle,0,2013-06-14 08:04:00
10:43 PM,69.8,68.0,94,30.11,10.0,ENE,8.1,-,N/A,,Partly Cloudy,70,2013-06-14 08:43:00
10:46 PM,69.8,68.0,94,30.11,10.0,East,10.4,-,N/A,,Light Drizzle,80,2013-06-14 08:46:00
10:55 PM,70.5,67.1,89,30.10,8.0,East,12.7,-,0.01,Rain,Light Rain,80,2013-06-14 08:55:00
11:08 PM,69.8,66.2,88,30.10,10.0,East,8.1,-,N/A,,Scattered Clouds,100,2013-06-14 09:08:00
11:23 PM,71.6,66.2,83,30.10,10.0,East,13.8,24.2,N/A,,Light Drizzle,80,2013-06-14 09:23:00
11:45 PM,69.8,66.2,88,30.09,10.0,East,9.2,-,N/A,,Scattered Clouds,80,2013-06-14 09:45:00
11:50 PM,69.8,66.2,88,30.09,10.0,ENE,12.7,-,N/A,Rain,Light Rain,70,2013-06-14 09:50:00
11:55 PM,70.5,66.6,87,30.09,9.0,ENE,12.7,-,0.02,,Light Drizzle,70,2013-06-14 09:55:00